This demonstration page uses our WeatherBlox Daily Observations layout. Learn more.

Hourly Observations for June 29, 2018

Temp ( °F °C ) Dew Point ( °F °C ) Humidity (%) Winds ( mph kmh ) Pressure ( in mb ) Visibility ( mi km ) Precip ( " mm )
12:15 am 00:15 Clear 81 27.2 63 17.2 54 54 S 15 24 29.62 1003 10 16.0934 0 0
12:35 am 00:35 Clear 80 26.9 63 17.2 55 55 S 14 22 29.62 1003 10 16.0934 0 0
12:55 am 00:55 Clear 79 26.2 64 17.5 59 59 S 14 22 29.59 1002 10 16.0934 0 0
1:15 am 01:15 Clear 79 26.3 64 17.6 59 59 S 15 24 29.59 1002 10 16.0934 0 0
1:35 am 01:35 Clear 79 26 64 17.5 60 60 S 17 28 29.59 1002 10 16.0934 0 0
1:55 am 01:55 Clear 79 26 64 17.5 60 60 S 15 24 29.59 1002 10 16.0934 0 0
2:15 am 02:15 Clear 78 25.3 64 17.6 62 62 S 15 24 29.59 1002 10 16.0934 0 0
2:35 am 02:35 Clear 77 25.1 64 17.7 64 64 S 14 22 29.59 1002 10 16.0934 0 0
2:55 am 02:55 Clear 77 25 64 17.8 64 64 S 16 26 29.59 1002 10 16.0934 0 0
3:15 am 03:15 Clear 77 25 64 17.9 65 65 S 17 28 29.59 1002 10 16.0934 0 0
3:35 am 03:35 Clear 76 24.7 64 17.9 66 66 S 18 30 29.59 1002 10 16.0934 0 0
3:55 am 03:55 Clear 76 24.5 64 18 67 67 S 18 30 29.59 1002 10 16.0934 0 0
4:15 am 04:15 Clear 76 24.5 64 18 67 67 S 17 28 29.59 1002 10 16.0934 0 0
4:35 am 04:35 Clear 76 24.4 65 18.2 68 68 S 16 26 29.59 1002 10 16.0934 0 0
4:55 am 04:55 Clear 76 24.2 65 18.2 69 69 S 16 26 29.59 1002 10 16.0934 0 0
5:15 am 05:15 Clear 76 24.2 65 18.1 69 69 S 18 30 29.59 1002 10 16.0934 0 0
5:35 am 05:35 Clear 75 24.1 64 18 69 69 S 20 31 29.59 1002 10 16.0934 0 0
5:55 am 05:55 Clear 75 24 64 18 69 69 S 18 30 29.59 1002 10 16.0934 0 0
6:15 am 06:15 Sunny 75 24 64 17.6 68 68 S 18 30 29.59 1002 10 16.0934 0 0
6:35 am 06:35 Sunny 75 24.1 63 17.3 66 66 S 18 30 29.59 1002 10 16.0934 0 0
6:55 am 06:55 Sunny 76 24.5 63 17 63 63 S 20 31 29.59 1002 10 16.0934 0 0
7:15 am 07:15 Sunny 76 24.6 63 17 63 63 S 17 28 29.59 1002 10 16.0934 0 0
7:35 am 07:35 Sunny 76 24.7 62 16.7 61 61 S 17 28 29.59 1002 10 16.0934 0 0
7:55 am 07:55 Sunny 77 25.1 62 16.5 59 59 S 18 30 29.59 1002 10 16.0934 0 0
8:15 am 08:15 Sunny 78 25.5 62 16.6 58 58 S 17 28 29.59 1002 10 16.0934 0 0
8:35 am 08:35 Sunny 79 26.1 63 17 57 57 S 17 28 29.59 1002 10 16.0934 0 0
8:55 am 08:55 Sunny 80 26.6 63 17 56 56 S 17 28 29.59 1002 10 16.0934 0 0
9:15 am 09:15 Sunny 82 27.5 63 17.2 53 53 S 17 28 29.59 1002 10 16.0934 0 0
9:35 am 09:35 Sunny 83 28.4 64 17.5 52 52 S 17 28 29.56 1001 10 16.0934 0 0
9:55 am 09:55 Sunny 84 29 64 17.6 50 50 S 17 28 29.56 1001 10 16.0934 0 0
10:15 am 10:15 Sunny 85 29.5 64 17.9 50 50 S 18 30 29.56 1001 10 16.0934 0 0
10:35 am 10:35 Sunny 86 30 65 18.3 49 49 S 18 30 29.56 1001 10 16.0934 0 0
10:55 am 10:55 Sunny 86 30 65 18.4 50 50 S 23 37 29.56 1001 10 16.0934 0 0
11:15 am 11:15 Sunny 87 30.5 66 18.7 49 49 S 20 31 29.56 1001 10 16.0934 0 0
11:35 am 11:35 Sunny 89 31.5 66 18.7 47 47 SSW 23 37 29.56 1001 10 16.0934 0 0
11:55 am 11:55 Sunny 90 32 66 18.8 45 45 SSW 26 43 29.5 999 7 11.26538 0 0
12:15 pm 12:15 Sunny 91 32.6 66 19.1 45 45 S 23 37 29.5 999 10 16.0934 0 0
12:35 pm 12:35 Sunny 92 33.2 67 19.3 44 44 SSW 21 33 29.5 999 10 16.0934 0 0
12:55 pm 12:55 Sunny 92 33.6 66 18.9 42 42 SSW 23 37 29.5 999 10 16.0934 0 0
1:15 pm 13:15 Sunny 93 34 67 19.4 42 42 SSW 24 39 29.5 999 10 16.0934 0 0
1:35 pm 13:35 Sunny 92 33.5 66 19 42 42 SSW 22 35 29.5 999 10 16.0934 0 0
1:55 pm 13:55 Sunny 91 33 66 18.8 43 43 SSW 21 33 29.5 999 10 16.0934 0 0
2:15 pm 14:15 Sunny 93 33.7 67 19.4 43 43 SSW 23 37 29.5 999 10 16.0934 0 0
2:35 pm 14:35 Sunny 93 33.7 67 19.3 43 43 SSW 22 35 29.5 999 10 16.0934 0 0
2:55 pm 14:55 Sunny 93 34 66 18.8 41 41 SSW 23 37 29.5 999 10 16.0934 0 0
3:15 pm 15:15 Sunny 94 34.2 68 20.2 44 44 SSW 23 37 29.5 999 10 16.0934 0 0
3:35 pm 15:35 Sunny 95 35.1 69 20.6 43 43 SSW 22 35 29.5 999 10 16.0934 0 0
3:55 pm 15:55 Sunny 95 35.1 68 20.1 41 41 SSW 20 31 29.5 999 10 16.0934 0 0
4:15 pm 16:15 Sunny 93 34 70 21 47 47 WSW 9 15 29.5 999 10 16.0934 0 0
4:35 pm 16:35 Sunny 91 32.9 69 20.7 49 49 W 9 15 29.53 1000 10 16.0934 0 0
4:55 pm 16:55 Sunny 91 32.9 68 20 47 47 W 8 13 29.53 1000 10 16.0934 0 0
5:15 pm 17:15 Sunny 90 32.3 68 20.1 48 48 WSW 6 9 29.53 1000 10 16.0934 0 0
5:35 pm 17:35 Sunny 90 32 69 20.3 50 50 W 7 11 29.53 1000 10 16.0934 0 0
5:55 pm 17:55 Sunny 89 31.5 70 20.9 53 53 W 5 7 29.56 1001 10 16.0934 0 0
6:15 pm 18:15 Sunny 89 31.6 68 20.2 51 51 WSW 3 6 29.53 1000 10 16.0934 0 0
6:35 pm 18:35 Sunny 90 32 69 20.7 51 51 W 3 6 29.53 1000 10 16.0934 0 0
6:55 pm 18:55 Sunny 87 30.8 70 21.3 57 57 Calm 29.56 1001 10 16.0934 0 0
7:15 pm 19:15 Sunny 88 31 74 23.5 64 64 SE 3 6 29.56 1001 10 16.0934 0 0
7:35 pm 19:35 Sunny 87 30.5 73 22.9 64 64 Calm 29.56 1001 10 16.0934 0 0
7:55 pm 19:55 Sunny 85 29.5 76 24.6 75 75 ESE 3 6 29.56 1001 10 16.0934 0 0
8:15 pm 20:15 Sunny 85 29.5 76 24.5 75 75 Calm 29.56 1001 10 16.0934 0 0
8:35 pm 20:35 Sunny 85 29.5 74 23.4 70 70 Calm 29.59 1002 10 16.0934 0 0
8:55 pm 20:55 Sunny 85 29.3 72 22 65 65 Calm 29.59 1002 10 16.0934 0 0
9:15 pm 21:15 Clear 81 27.4 74 23.4 79 79 Calm 29.62 1003 10 16.0934 0 0
9:35 pm 21:35 Clear 84 29.1 69 20.7 61 61 S 5 7 29.59 1002 10 16.0934 0 0
9:55 pm 21:55 Clear 81 27.2 70 21.2 70 70 SSE 5 7 29.62 1003 10 16.0934 0 0
10:15 pm 22:15 Clear 78 25.7 70 21.2 76 76 SSE 5 7 29.62 1003 10 16.0934 0 0
10:35 pm 22:35 Clear 78 25.6 69 20.8 75 75 SSE 6 9 29.65 1004 10 16.0934 0 0
10:55 pm 22:55 Clear 78 25.8 69 20.5 73 73 S 7 11 29.65 1004 10 16.0934 0 0
11:15 pm 23:15 Clear 79 26.3 69 20.3 70 70 S 10 17 29.65 1004 10 16.0934 0 0
11:35 pm 23:35 Clear 81 27 68 20 66 66 S 12 19 29.65 1004 10 16.0934 0 0
11:55 pm 23:55 Partly Cloudy 81 27.2 68 20 65 65 S 12 19 29.65 1004 10 16.0934 0 0

Powered by AerisWeather